KI7CSN-13 Weather Reports


time (UTC)temp
C
wind
direction
speed
KPH
gust
KPH
rain 1hr
cm
rain 24hr
cm
rain mn
cm
humidity
%
barometer
mb
20260506233237 26 250 6.4 19.3 0.00 0.00 0.00 19 983.3
20260506232737 25 237 6.4 33.8 0.00 0.00 0.00 20 983.3
20260506232237 25 326 24.1 24.1 0.00 0.00 0.00 20 983.3
20260506231737 25 213 9.7 19.3 0.00 0.00 0.00 20 983.4
20260506231237 25 247 0.0 27.4 0.00 0.00 0.00 20 983.4
20260506230737 25 284 12.9 19.3 0.00 0.00 0.00 20 983.3
20260506230237 24 233 12.9 25.7 0.00 0.00 0.00 20 983.4
20260506225737 25 250 12.9 30.6 0.00 0.00 0.00 20 983.5
20260506225237 25 340 12.9 20.9 0.00 0.00 0.00 20 983.5
20260506224737 25 358 9.7 22.5 0.00 0.00 0.00 20 983.7
20260506224237 25 295 14.5 29.0 0.00 0.00 0.00 21 983.7
20260506223737 25 15 25.7 30.6 0.00 0.00 0.00 22 983.7
20260506223237 24 340 25.7 27.4 0.00 0.00 0.00 24 983.7
20260506222737 25 324 16.1 29.0 0.00 0.00 0.00 23 983.8
20260506222237 24 306 20.9 37.0 0.00 0.00 0.00 24 983.9
20260506221737 25 354 22.5 24.1 0.00 0.00 0.00 24 983.8
20260506221237 25 257 6.4 33.8 0.00 0.00 0.00 24 983.8
20260506220737 24 271 12.9 32.2 0.00 0.00 0.00 24 983.9
20260506220237 25 279 8.0 19.3 0.00 0.00 0.00 24 983.9
20260506215737 25 246 6.4 20.9 0.00 0.00 0.00 23 984.0
20260506215237 24 327 17.7 24.1 0.00 0.00 0.00 24 984.1
20260506214737 24 232 9.7 17.7 0.00 0.00 0.00 23 984.1
20260506214237 25 298 16.1 27.4 0.00 0.00 0.00 23 984.1
20260506213737 24 307 9.7 22.5 0.00 0.00 0.00 24 984.1
20260506213237 23 244 11.3 27.4 0.00 0.00 0.00 24 984.3
20260506212737 25 198 14.5 20.9 0.00 0.00 0.00 24 984.3
20260506212237 24 306 14.5 22.5 0.00 0.00 0.00 24 984.3
20260506211737 23 43 11.3 22.5 0.00 0.00 0.00 25 984.3
20260506211237 23 296 0.0 22.5 0.00 0.00 0.00 24 984.3
20260506210737 23 248 9.7 35.4 0.00 0.00 0.00 25 984.4
20260506210237 22 189 11.3 30.6 0.00 0.00 0.00 26 984.4
20260506205737 23 257 4.8 24.1 0.00 0.00 0.00 25 984.4
20260506205237 23 260 8.0 29.0 0.00 0.00 0.00 26 984.6
20260506204737 23 265 19.3 32.2 0.00 0.00 0.00 26 984.7
20260506204237 23 223 17.7 20.9 0.00 0.00 0.00 25 984.6
20260506203737 22 194 8.0 19.3 0.00 0.00 0.00 26 984.6
20260506203237 22 336 8.0 27.4 0.00 0.00 0.00 26 984.7
20260506202737 22 317 16.1 30.6 0.00 0.00 0.00 25 984.8
20260506202237 22 315 6.4 25.7 0.00 0.00 0.00 25 984.7
20260506201737 23 306 4.8 20.9 0.00 0.00 0.00 26 984.8
20260506201237 22 324 11.3 22.5 0.00 0.00 0.00 27 984.7
20260506200737 22 250 12.9 19.3 0.00 0.00 0.00 27 984.8
20260506200237 22 292 6.4 30.6 0.00 0.00 0.00 27 984.9
20260506195737 22 246 19.3 25.7 0.00 0.00 0.00 27 984.8
20260506195237 22 274 9.7 24.1 0.00 0.00 0.00 27 984.8
20260506194737 22 244 12.9 20.9 0.00 0.00 0.00 27 984.9
20260506194237 22 241 8.0 24.1 0.00 0.00 0.00 27 984.8
20260506193737 22 331 19.3 24.1 0.00 0.00 0.00 27 984.8
20260506193237 22 237 6.4 25.7 0.00 0.00 0.00 27 984.9
20260506192737 22 275 11.3 24.1 0.00 0.00 0.00 27 985.0
20260506192237 21 225 11.3 24.1 0.00 0.00 0.00 27 984.9
20260506191737 22 240 12.9 22.5 0.00 0.00 0.00 27 985.0
20260506191237 21 253 6.4 24.1 0.00 0.00 0.00 27 985.0
20260506190737 22 271 19.3 29.0 0.00 0.00 0.00 26 985.0
20260506190237 22 243 16.1 19.3 0.00 0.00 0.00 27 985.1
20260506185737 21 292 6.4 16.1 0.00 0.00 0.00 27 985.1
20260506185237 21 284 0.0 17.7 0.00 0.00 0.00 27 985.1
20260506184737 21 258 8.0 24.1 0.00 0.00 0.00 27 985.2
20260506184237 21 337 12.9 17.7 0.00 0.00 0.00 27 985.1
20260506183737 20 262 4.8 27.4 0.00 0.00 0.00 29 985.2
20260506183237 21 285 9.7 22.5 0.00 0.00 0.00 28 985.4
20260506182737 20 223 12.9 22.5 0.00 0.00 0.00 29 985.2
20260506182237 20 247 6.4 20.9 0.00 0.00 0.00 29 985.4
20260506181737 20 262 6.4 22.5 0.00 0.00 0.00 29 985.4
20260506181237 20 19 12.9 25.7 0.00 0.00 0.00 29 985.2
20260506180737 20 291 8.0 22.5 0.00 0.00 0.00 29 985.2
20260506180237 20 246 9.7 22.5 0.00 0.00 0.00 28 985.2
20260506175737 20 277 6.4 25.7 0.00 0.00 0.00 29 985.2
20260506175237 20 358 3.2 25.7 0.00 0.00 0.00 29 985.2
20260506174737 20 358 11.3 37.0 0.00 0.00 0.00 29 985.2
20260506174237 20 25 17.7 19.3 0.00 0.00 0.00 29 985.2
20260506173737 19 333 4.8 24.1 0.00 0.00 0.00 29 985.2
20260506173237 20 291 3.2 16.1 0.00 0.00 0.00 28 985.2
20260506172737 18 229 8.0 20.9 0.00 0.00 0.00 30 985.1
20260506172237 20 215 11.3 16.1 0.00 0.00 0.00 29 985.1
20260506171737 19 234 4.8 14.5 0.00 0.00 0.00 29 985.1
20260506171237 19 296 6.4 22.5 0.00 0.00 0.00 29 985.0
20260506170737 19 195 14.5 17.7 0.00 0.00 0.00 29 985.0
20260506170237 19 295 6.4 17.7 0.00 0.00 0.00 31 984.9
20260506165737 18 202 11.3 16.1 0.00 0.00 0.00 30 984.9
20260506165237 19 241 9.7 17.7 0.00 0.00 0.00 31 984.9
20260506164738 18 286 0.0 22.5 0.00 0.00 0.00 31 984.9
20260506164238 19 219 14.5 19.3 0.00 0.00 0.00 30 984.9
20260506163738 18 282 9.7 16.1 0.00 0.00 0.00 32 984.9
20260506163238 17 302 6.4 17.7 0.00 0.00 0.00 33 984.9
20260506162738 17 326 9.7 19.3 0.00 0.00 0.00 33 984.9
20260506162238 17 279 8.0 11.3 0.00 0.00 0.00 33 984.9
20260506161738 17 253 9.7 20.9 0.00 0.00 0.00 33 984.9
20260506161238 17 320 0.0 17.7 0.00 0.00 0.00 34 984.9
20260506160738 16 167 14.5 14.5 0.00 0.00 0.00 36 984.9
20260506160238 16 194 11.3 11.3 0.00 0.00 0.00 36 984.9
20260506155738 15 217 6.4 11.3 0.00 0.00 0.00 37 984.8
20260506155238 15 174 8.0 14.5 0.00 0.00 0.00 39 984.8
20260506154738 15 192 8.0 11.3 0.00 0.00 0.00 39 984.8
20260506154238 14 170 4.8 9.7 0.00 0.00 0.00 40 984.9
20260506153738 13 189 6.4 11.3 0.00 0.00 0.00 41 984.8
20260506153238 13 180 8.0 9.7 0.00 0.00 0.00 42 984.8
20260506152738 13 163 0.0 8.0 0.00 0.00 0.00 42 984.8
20260506152238 13 106 0.0 9.7 0.00 0.00 0.00 43 984.8
20260506151738 12 225 0.0 14.5 0.00 0.00 0.00 44 984.8
20260506151238 12 215 9.7 9.7 0.00 0.00 0.00 45 984.7
20260506150738 12 208 1.6 9.7 0.00 0.00 0.00 46 984.7
20260506150238 12 205 8.0 9.7 0.00 0.00 0.00 46 984.6
20260506145738 12 184 8.0 8.0 0.00 0.00 0.00 47 984.6
20260506145238 12 172 4.8 6.4 0.00 0.00 0.00 47 984.6
20260506144738 11 153 4.8 9.7 0.00 0.00 0.00 48 984.7
20260506144238 11 175 0.0 6.4 0.00 0.00 0.00 49 984.6
20260506143738 11 208 0.0 9.7 0.00 0.00 0.00 49 984.4
20260506143238 11 158 4.8 8.0 0.00 0.00 0.00 51 984.3
20260506142738 11 97 0.0 4.8 0.00 0.00 0.00 53 984.3
20260506142238 10 348 0.0 0.0 0.00 0.00 0.00 55 984.3
20260506141738 10 348 0.0 0.0 0.00 0.00 0.00 57 984.3
20260506141238 9 348 0.0 0.0 0.00 0.00 0.00 58 984.3
20260506140738 9 348 0.0 0.0 0.00 0.00 0.00 59 984.3
20260506140238 9 348 0.0 0.0 0.00 0.00 0.00 59 984.3
20260506135738 9 348 0.0 0.0 0.00 0.00 0.00 59 984.2
20260506135238 9 348 0.0 0.0 0.00 0.00 0.00 61 984.1
20260506134738 8 348 0.0 0.0 0.00 0.00 0.00 60 984.0
20260506134238 8 348 0.0 0.0 0.00 0.00 0.00 61 984.0
20260506133738 8 348 0.0 0.0 0.00 0.00 0.00 62 983.9
20260506133238 8 348 0.0 0.0 0.00 0.00 0.00 63 983.8
20260506132738 8 348 0.0 0.0 0.00 0.00 0.00 63 983.8
20260506132238 7 348 0.0 0.0 0.00 0.00 0.00 66 983.9
20260506131738 7 348 0.0 0.0 0.00 0.00 0.00 66 983.8
20260506131238 6 348 0.0 0.0 0.00 0.00 0.00 68 983.5
20260506130738 6 348 0.0 0.0 0.00 0.00 0.00 67 983.5
20260506130238 6 348 0.0 0.0 0.00 0.00 0.00 64 983.4
20260506125738 6 348 0.0 0.0 0.00 0.00 0.00 68 983.4
20260506125238 6 348 0.0 0.0 0.00 0.00 0.00 69 983.3
20260506124738 6 348 0.0 0.0 0.00 0.00 0.00 69 983.3
20260506124238 6 348 0.0 0.0 0.00 0.00 0.00 66 983.3
20260506123738 6 348 0.0 0.0 0.00 0.00 0.00 68 983.3
20260506123238 6 348 0.0 0.0 0.00 0.00 0.00 67 983.2
20260506122738 6 348 0.0 0.0 0.00 0.00 0.00 64 983.1
20260506122238 6 348 0.0 0.0 0.00 0.00 0.00 66 983.2
20260506121738 7 348 0.0 0.0 0.00 0.00 0.00 62 983.1
20260506121238 7 348 0.0 0.0 0.00 0.00 0.00 64 983.1
20260506120738 7 348 0.0 0.0 0.00 0.00 0.00 64 983.2
20260506120238 7 348 0.0 0.0 0.00 0.00 0.00 63 983.1
20260506115738 7 348 0.0 0.0 0.00 0.00 0.00 63 983.1
20260506115238 7 348 0.0 0.0 0.00 0.00 0.00 63 983.1
20260506114738 7 348 0.0 0.0 0.00 0.00 0.00 65 983.1
20260506114238 6 348 0.0 0.0 0.00 0.00 0.00 66 983.1
20260506113738 7 348 0.0 0.0 0.00 0.00 0.00 64 983.0
20260506113238 7 348 0.0 0.0 0.00 0.00 0.00 63 983.1
20260506112738 6 348 0.0 0.0 0.00 0.00 0.00 58 983.0
20260506112238 8 348 0.0 0.0 0.00 0.00 0.00 61 983.0
20260506111738 8 348 0.0 0.0 0.00 0.00 0.00 62 983.0
20260506111238 7 348 0.0 0.0 0.00 0.00 0.00 65 983.0
20260506110738 7 348 0.0 0.0 0.00 0.00 0.00 65 982.9
20260506110238 7 348 0.0 0.0 0.00 0.00 0.00 65 982.8
20260506105738 7 348 0.0 0.0 0.00 0.00 0.00 65 982.8
20260506105238 6 348 0.0 0.0 0.00 0.00 0.00 64 982.8
20260506104738 7 348 0.0 0.0 0.00 0.00 0.00 61 982.8
20260506104238 7 348 0.0 0.0 0.00 0.00 0.00 63 982.8
20260506103738 6 348 0.0 0.0 0.00 0.00 0.00 65 982.6
20260506103238 7 348 0.0 0.0 0.00 0.00 0.00 64 982.6
20260506102738 6 348 0.0 0.0 0.00 0.00 0.00 58 982.6
20260506102238 7 348 0.0 0.0 0.00 0.00 0.00 54 982.6
20260506101738 8 348 0.0 0.0 0.00 0.00 0.00 59 982.5
20260506101238 8 348 0.0 0.0 0.00 0.00 0.00 57 982.6
20260506100738 8 348 0.0 0.0 0.00 0.00 0.00 58 982.5
20260506100238 9 348 0.0 0.0 0.00 0.00 0.00 56 982.5
20260506095738 9 348 0.0 0.0 0.00 0.00 0.00 56 982.5
20260506095238 9 348 0.0 0.0 0.00 0.00 0.00 54 982.5
20260506094738 9 348 0.0 6.4 0.00 0.00 0.00 55 982.5
20260506094238 9 338 0.0 0.0 0.00 0.00 0.00 55 982.4
20260506093738 9 338 0.0 0.0 0.00 0.00 0.00 54 982.4
20260506093238 9 338 0.0 0.0 0.00 0.00 0.00 51 982.4
20260506092738 9 338 0.0 0.0 0.00 0.00 0.00 51 982.4
20260506092238 9 338 0.0 0.0 0.00 0.00 0.00 51 982.4
20260506091738 9 338 0.0 0.0 0.00 0.00 0.00 50 982.3
20260506091238 9 338 0.0 0.0 0.00 0.00 0.00 50 982.4
20260506090738 9 338 0.0 0.0 0.00 0.00 0.00 50 982.4
20260506090238 9 338 0.0 0.0 0.00 0.00 0.00 49 982.4
20260506085738 9 338 0.0 0.0 0.00 0.00 0.00 48 982.3
20260506085238 10 338 0.0 0.0 0.00 0.00 0.00 46 982.2
20260506084739 10 338 0.0 4.8 0.00 0.00 0.00 46 982.3
20260506084239 10 324 0.0 0.0 0.00 0.00 0.00 47 982.3
20260506083739 10 324 0.0 0.0 0.00 0.00 0.00 46 982.2
20260506083239 10 324 0.0 0.0 0.00 0.00 0.00 46 982.3
20260506082739 10 324 0.0 0.0 0.00 0.00 0.00 46 982.3
20260506082239 10 324 0.0 0.0 0.00 0.00 0.00 46 982.3
20260506081739 10 324 0.0 8.0 0.00 0.00 0.00 44 982.3
20260506081239 10 28 0.0 0.0 0.00 0.00 0.00 44 982.3
20260506080739 10 28 0.0 0.0 0.00 0.00 0.00 44 982.2
20260506080239 10 28 0.0 0.0 0.00 0.00 0.00 44 982.2
20260506073239 10 28 0.0 6.4 0.00 0.00 0.00 42 982.2
20260506072739 10 358 0.0 0.0 0.00 0.00 0.00 43 982.3
20260506072239 10 358 0.0 0.0 0.00 0.00 0.00 43 982.2
20260506071739 10 358 0.0 0.0 0.00 0.00 0.00 44 982.1
20260506071239 10 358 0.0 0.0 0.00 0.00 0.00 45 982.1
20260506070739 10 358 0.0 0.0 0.00 0.00 0.00 43 982.0
20260506070239 10 358 0.0 0.0 0.00 0.00 0.00 42 982.0
20260506062239 11 358 0.0 0.0 0.00 0.00 0.00 41 981.9
20260506061739 11 358 0.0 3.2 0.00 0.00 0.00 40 981.7
20260506061239 11 358 1.6 4.8 0.00 0.00 0.00 40 981.7
20260506060739 11 33 0.0 3.2 0.00 0.00 0.00 40 981.6
20260506060239 10 322 0.0 0.0 0.00 0.00 0.00 40 981.6
20260506051239 12 95 0.0 4.8 0.00 0.00 0.00 37 981.5
20260506050739 12 119 3.2 8.0 0.00 0.00 0.00 38 981.4
20260506050239 12 246 0.0 0.0 0.00 0.00 0.00 36 981.3
20260506044739 12 271 0.0 4.8 0.00 0.00 0.00 36 981.3
20260506044239 12 303 3.2 6.4 0.00 0.00 0.00 37 981.2
20260506043739 12 323 4.8 6.4 0.00 0.00 0.00 37 981.3
20260506043239 12 253 0.0 6.4 0.00 0.00 0.00 37 981.2
20260506042739 12 267 4.8 8.0 0.00 0.00 0.00 37 981.2
20260506042239 13 336 0.0 9.7 0.00 0.00 0.00 37 981.2
20260506041739 13 279 0.0 9.7 0.00 0.00 0.00 37 981.1
20260506041239 13 274 9.7 11.3 0.00 0.00 0.00 37 981.1
20260506040739 13 206 0.0 9.7 0.00 0.00 0.00 37 981.0
20260506040239 13 250 0.0 11.3 0.00 0.00 0.00 37 980.8
20260506035739 13 233 0.0 12.9 0.00 0.00 0.00 37 980.8
20260506035239 13 324 0.0 14.5 0.00 0.00 0.00 37 980.7
20260506034739 13 307 4.8 9.7 0.00 0.00 0.00 37 980.6
20260506034239 13 260 6.4 12.9 0.00 0.00 0.00 36 980.5
20260506033739 13 310 0.0 11.3 0.00 0.00 0.00 37 980.5
20260506033239 13 250 3.2 8.0 0.00 0.00 0.00 37 980.4
20260506032739 13 248 8.0 12.9 0.00 0.00 0.00 36 980.4
20260506032239 13 279 0.0 11.3 0.00 0.00 0.00 37 980.4
20260506031739 13 182 4.8 9.7 0.00 0.00 0.00 37 980.3
20260506031239 13 251 4.8 11.3 0.00 0.00 0.00 36 980.3
20260506030739 13 258 0.0 9.7 0.00 0.00 0.00 36 980.2
20260506030239 13 262 4.8 8.0 0.00 0.00 0.00 35 980.2
20260506025739 13 227 8.0 9.7 0.00 0.00 0.00 35 980.0
20260506025239 14 217 6.4 17.7 0.00 0.00 0.00 35 979.9
20260506024739 14 229 0.0 17.7 0.00 0.00 0.00 35 979.8
20260506024239 14 234 12.9 19.3 0.00 0.00 0.00 35 979.8
20260506023739 14 251 11.3 17.7 0.00 0.00 0.00 35 979.8
20260506023239 14 241 6.4 17.7 0.00 0.00 0.00 35 979.8
20260506022739 14 257 8.0 16.1 0.00 0.00 0.00 34 979.7
20260506022239 15 236 9.7 19.3 0.00 0.00 0.00 33 979.6
20260506021739 15 272 11.3 22.5 0.00 0.00 0.00 33 979.5
20260506021239 15 260 6.4 17.7 0.00 0.00 0.00 33 979.5
20260506020739 15 336 8.0 19.3 0.00 0.00 0.00 33 979.4
20260506020239 15 261 9.7 19.3 0.00 0.00 0.00 33 979.4
20260506015739 15 210 16.1 20.9 0.00 0.00 0.00 33 979.1
20260506015240 15 234 9.7 20.9 0.00 0.00 0.00 33 979.1
20260506014739 15 240 14.5 22.5 0.00 0.00 0.00 33 979.0
20260506014239 16 226 16.1 25.7 0.00 0.00 0.00 33 979.0
20260506013739 15 216 19.3 27.4 0.00 0.00 0.00 33 979.0
20260506013239 16 209 6.4 27.4 0.00 0.00 0.00 32 978.9
20260506012739 16 212 20.9 25.7 0.00 0.00 0.00 33 978.9
20260506012239 16 255 8.0 22.5 0.00 0.00 0.00 31 978.9
20260506011739 16 202 19.3 25.7 0.00 0.00 0.00 33 978.8
20260506011239 16 230 12.9 22.5 0.00 0.00 0.00 31 978.8
20260506010739 17 267 11.3 22.5 0.00 0.00 0.00 29 978.7
20260506010239 16 246 19.3 29.0 0.00 0.00 0.00 31 978.7
20260506005739 16 209 12.9 27.4 0.00 0.00 0.00 31 978.7
20260506005239 17 253 11.3 30.6 0.00 0.00 0.00 31 978.7
20260506004739 17 247 12.9 24.1 0.00 0.00 0.00 31 978.6
20260506004239 17 295 12.9 24.1 0.00 0.00 0.00 31 978.5
20260506003739 16 250 12.9 29.0 0.00 0.00 0.00 33 978.5
20260506003239 16 233 14.5 33.8 0.00 0.00 0.00 32 978.4
20260506002739 16 244 19.3 27.4 0.00 0.00 0.00 31 978.4
20260506002239 17 275 8.0 22.5 0.00 0.00 0.00 33 978.4
20260506001740 17 262 8.0 25.7 0.00 0.00 0.00 31 978.4
20260506001240 17 253 6.4 22.5 0.00 0.00 0.00 31 978.2
20260506000740 17 260 17.7 30.6 0.00 0.00 0.00 31 978.2
20260506000240 17 255 19.3 29.0 0.00 0.00 0.00 31 978.2
20260505235740 17 220 17.7 24.1 0.00 0.00 0.00 31 978.0
20260505235240 17 277 12.9 20.9 0.00 0.00 0.00 31 978.0
20260505234740 16 326 9.7 29.0 0.00 0.00 0.00 32 978.1
20260505234240 17 281 8.0 29.0 0.00 0.00 0.00 31 978.0
20260505233740 17 267 6.4 24.1 0.00 0.00 0.00 31 978.0